Regional Weather Roundup
Issued by NWS Upton, NY

Current Version | Previous Version | Text Only | Print | Product List | Glossary On
Versions: 1 2 3 4 5 6 7 8 9 10 11 12 13 14 15 16 17 18 19 20 21 22 23 24 25 26 27 28 29 30 31 32 33 34 35 36 37 38 39 40 41 42 43 44 45 46 47 48 49 50
000 ASUS41 KOKX 301005 RWROKX REGIONAL WEATHER ROUNDUP NATIONAL WEATHER SERVICE NEW YORK NY 500 AM EST FRI JAN 30 2015 NOTE: "FAIR" INDICATES FEW OR NO CLOUDS BELOW 12,000 FEET WITH NO SIGNIFICANT WEATHER AND/OR OBSTRUCTIONS TO VISIBILITY. NYZ071-072-176-178-NJZ106-104-301100- NEW YORK CITY METRO AREA CITY SKY/WX TMP DP RH WIND PRES REMARKS CENTRAL PARK CLOUDY 35 27 72 VRB3 29.87F LAGUARDIA APRT FLURRIES 35 27 72 SW8 29.85F WCI 29 KENNEDY INTL FLURRIES 36 29 75 SW7 29.87F WCI 30 NEWARK/LIBERTY FLURRIES 33 28 81 VRB5 29.86F WCI 29 BRNX BOT. GARD N/A 34 32 93 W3 29.87F TETERBORO FLURRIES 32 29 88 CALM 29.85F $$ NYZ177-179-078>081-301100- LONG ISLAND NEW YORK CITY SKY/WX TMP DP RH WIND PRES REMARKS FARMINGDALE CLOUDY 34 31 88 CALM 29.85F ISLIP CLOUDY 33 30 88 CALM 29.84F SHIRLEY CLOUDY 33 30 88 CALM 29.86F WESTHAMPTON CLOUDY 33 29 85 CALM 29.87F MONTAUK POINT N/A 37 33 85 CALM 29.88F $$ NYZ052-065-067-301100- HUDSON VALLEY CITY SKY/WX TMP DP RH WIND PRES REMARKS WHITE PLAINS DRIZZLE 31 29 92 CALM 29.83F NEWBURGH CLOUDY 25 25 100 CALM 29.85F FOG MONTGOMERY LGT SNOW 25 24 96 CALM 29.84S FOG POUGHKEEPSIE LGT SNOW 29 26 89 CALM 29.85F FOG ALBANY LGT SNOW 28 24 85 S8 29.84F FOG WCI 20 $$ NJZ001-105-106-008-010-013-015-019>022-104-301100- NEW JERSEY CITY SKY/WX TMP DP RH WIND PRES REMARKS NEWARK/LIBERTY FLURRIES 33 28 81 VRB5 29.86F WCI 29 TETERBORO FLURRIES 32 29 88 CALM 29.85F CALDWELL LGT SNOW 28 27 96 CALM 29.86F FOG MORRISTOWN CLOUDY 32 28 86 CALM 29.86S SOMERVILLE CLOUDY 29 26 89 CALM 29.85F SUSSEX LGT SNOW 26 23 88 CALM 29.83F FOG ANDOVER N/A 26 24 92 CALM 29.84F TRENTON CLOUDY 30 25 81 CALM 29.86S MILLVILLE CLOUDY 35 27 72 W6 29.86F WCI 30 ATLANTIC CITY FLURRIES 37 27 67 SW7 29.86F WCI 32 WRIGHTSTOWN FLURRIES 34 27 74 W5 29.84S WCI 30 TOMS RIVER CLOUDY 36 28 75 CALM 29.84F BELMAR CLOUDY 36 25 64 SW5 29.85S WCI 32 $$ PAZ047>061-062-071-301100- EASTERN PENNSYLVANIA CITY SKY/WX TMP DP RH WIND PRES REMARKS PHILADELPHIA CLOUDY 34 25 69 W6 29.88S WCI 29 ALLENTOWN FLURRIES 28 24 85 NW3 29.85F SCRANTON LGT SNOW 27 23 85 SW7 29.82S FOG WCI 19 $$ CTZ002-004>006-009-010-012-RIZ004-006-007-MAZ004-011-015-301100- SOUTHERN NEW ENGLAND IN CT CITY SKY/WX TMP DP RH WIND PRES REMARKS BRADLEY INTL LGT SNOW 29 25 85 S5 29.85F FOG WCI 24 HARTFORD LGT SNOW 31 29 92 S5 29.86F FOG WCI 26 DANBURY CLOUDY 31 25 78 SW5 29.85F WCI 26 WTRBRY/OXFORD CLOUDY 30 23 74 CALM 29.83F BRIDGEPORT CLOUDY 32 32 100 CALM 29.86F MERIDEN CLOUDY 30 29 96 CALM 29.86F FOG NEW HAVEN CLOUDY 32 31 96 CALM 29.86F CHESTER CLOUDY 32 32 100 W3 29.85F GROTON CLOUDY 34 32 92 W3 29.87F WILLIMANTIC LGT SNOW 29 26 89 CALM 29.86F FOG IN RI CITY SKY/WX TMP DP RH WIND PRES REMARKS PROVIDENCE CLOUDY 31 29 92 CALM 29.88F BLOCK ISLAND CLOUDY 37 32 81 W7 29.86F WCI 32 WESTERLY CLOUDY 36 33 89 CALM 29.87F IN MA CITY SKY/WX TMP DP RH WIND PRES REMARKS BOSTON LGT SNOW 31 27 85 S6 29.89F FOG WCI 25 WORCESTER CLOUDY 26 25 96 S5 29.82F WCI 20 WESTFIELD LGT SNOW 28 24 85 CALM 29.84F FOG PROVINCETOWN CLOUDY 34 30 86 SE8 29.90F WCI 27 NANTUCKET CLOUDY 37 31 78 SE16 29.90F WCI 28 $$ ANZ330-335-338-340-345-350-353-355-301100- COASTAL MARINE OBSERVATIONS STATION/POSITION TIME SKY/WX TEMP WIND PRES VSBY WAVE AIR SEA DIR/SP/G HT/PER (UTC) (F) (DEG/KT/KT) (MB) (MI) (FT/S) NY HARB ENTRANCE 1000 40 39 230/ 14/ 17 1010.3 3/ 5 4S FIRE IS 1000 37 N/A 3/ 5 20S FIRE ISLAND 0900 42 1011.8 4/ 5 23SW MTP 1000 N/A 4/ 5 HUDSON CANYON NOT AVBL EXECUTION ROCKS 1000 33 33 270/ 2/ 4 N/A WESTERN LI SOUND 1000 33 CALM / 2 N/A 0 CENTRAL LI SOUND 0900 34 35 300/ 4/ 6 N/A 0 EASTERN LI SOUND NOT AVBL ROBBINS REEF 1000 35 240/ 5/ 6 1009.8 $$ >>>>>>>>>>>>>>>>>>>>>>>>>>>> KEY <<<<<<<<<<<<<<<<<<<<<<<<<<< > < > SKY/WX - SKY CONDITION/PRESENT WEATHER < > TMP - TEMPERATURE IN FAHRENHEIT < > DP - DEWPOINT IN FAHRENHEIT < > RH - RELATIVE HUMIDITY IN PERCENT < > WIND - DIRECTION AND SPEED IN MPH < > PRES - MEAN SEA LEVEL PRESSURE IN INCHES OF HG < > WCI - WIND CHILL INDEX < > VSB - VISIBILITY IN MILES < > HX - HEAT INDEX < > TC - TEMPERATURE IN CELSIUS < > VRB - VARIABLE WIND DIRECTION < > < >>>>>>>>>>>>>>>>>>>>>>>>>>>> KEY <<<<<<<<<<<<<<<<<<<<<<<<<<<

USA.gov is the U.S. government's official web portal to all federal, state and local government web resources and services.